Location: Beulah
(33.1426°N, 83.0557°W)
Time: 04:18:20
(UTC+00:00)

Envisat - Pass Details

Date: 01 December 2021
Orbit: 764 x 766 km, 98.2° (Epoch: 23 January)

Event Time Altitude Azimuth Distance (km) Brightness Sun altitude
Rises 09:09:08 0° 38° (NE) 3,234 6.6 -38.8°
Reaches altitude 10° 09:12:56 10° 67° (ENE) 2,302 6.1 -38.1°
Maximum altitude 09:15:03 13° 92° (E) 2,127 6.0 -37.6°
Drops below altitude 10° 09:17:09 10° 117° (ESE) 2,296 6.1 -37.2°
Sets 09:20:54 0° 146° (SE) 3,215 6.7 -36.4°
